Location: Beuerbach
(48.1459°N, 10.9174°E)
Time: 00:55:11
(UTC+00:00)

Meteor 1-21 - Pass Details

Date: 05 August 2024
Orbit: 845 x 885 km, 81.2° (Epoch: 09 September)

Event Time Altitude Azimuth Distance (km) Brightness Sun altitude
Rises 02:52:36 0° 332° (NNW) 3,417 7.5 -9.9°
Reaches altitude 10° 02:56:12 10° 309° (NW) 2,475 6.5 -9.5°
Maximum altitude 02:58:59 14° 279° (W) 2,190 6.0 -9.1°
Drops below altitude 10° 03:01:46 10° 249° (WSW) 2,470 6.0 -8.7°
Enters shadow 03:01:54 10° 247° (WSW) 2,496 6.0 -8.7°
